Back to catalog

LUOJIA-1 01

AliveScienceSSO
NORAD 43485·PAYLOAD·🇨🇳 China

Launched Jun 2, 2018 from Jiuquan Satellite Launch Center

Loading…

Next Passes (next 24 hours)

TLE

FreshSource: Space-Track

Epoch: Sep 14, 2026, 15:29 UTC

1 43485U 18048B   26257.64539536  .00001786  00000-0  20267-3 0  9990
2 43485  97.8048 334.3838 0008782 177.8138 182.3119 14.87551348447516

Track LUOJIA-1 01 in real time with AllMySat

Download on the App Store